Terug naar catalogus

STARLINK-4271

ActiefCommunicatieVLEO
NORAD 53012·PAYLOAD·🇺🇸 United States

Gelanceerd Jul 7, 2022 vanaf Cape Canaveral Space Force Station

Loading…

Volgende Passages (komende 24 uur)

TLE

VersSource: CelesTrak SupGP

Epoch: Sep 15, 2026, 01:32 UTC

1 53012C 22076AC  26258.06437500  .00041557  00000+0  13375-2 0  2586
2 53012  53.1600 317.0874 0001046  86.4804  86.4753 15.31654442    18

Volg STARLINK-4271 in realtime met AllMySat

Download on the App Store